Satellite: MAST
Catalog number: 31126
Epoch time:      08030.24469176
Element set:    0244
Inclination:      098.0565 deg
RA of node:       100.1248 deg
Eccentricity:    0.0095655
Arg of perigee:   042.8864 deg
Mean anomaly:     317.9760 deg
Mean motion:   14.53396112 rev/day
Decay rate:        5.7e-07 rev/day^2
Epoch rev:           04183
Checksum:              290

Satellite: CAPE1
Catalog number: 31130
Epoch time:      08030.95138172
Element set:    0230
Inclination:      098.0598 deg
RA of node:       100.1330 deg
Eccentricity:    0.0103760
Arg of perigee:   042.6733 deg
Mean anomaly:     318.2467 deg
Mean motion:   14.51926239 rev/day
Decay rate:        2.2e-07 rev/day^2
Epoch rev:           04166
Checksum:              254

/EX



_______________________________________________
Via the Keps mailing list courtesy of AMSAT-NA
http://amsat.org/mailman/listinfo/keps

--- ViaMAIL!/WC v1.60d
 * Origin: Chowdanet (401-724-4410) telnet://chowdanet.com  (1:323/120)